Regional Weather Roundup
Issued by NWS Bismarck, ND

Home | Current Version | Previous Version | Text Only | Print | Product List | Glossary On
Versions: 1 2 3 4 5 6 7 8 9 10 11 12 13 14 15 16 17 18 19 20 21 22 23 24 25 26 27 28 29 30 31 32 33 34 35 36 37 38 39 40 41 42 43 44 45 46 47 48 49 50
000
ASUS43 KBIS 170910
RWRBIS

NWR BROADCAST TEXT
NATIONAL WEATHER SERVICE BISMARCK ND
300 AM CST SUN DEC 17 2017

NOTE: "FAIR" INDICATES FEW OR NO CLOUDS BELOW 12,000 FEET WITH NO
SIGNIFICANT WEATHER AND/OR OBSTRUCTIONS TO VISIBILITY.


CITY           SKY/WX    TMP DP  RH WIND       PRES   REMARKS
WILLISTON      FAIR      19  17  92 S5        30.02F WCI  12
MINOT          FAIR      24  17  74 SW12      30.00S WCI  13
MINOT AFB      CLEAR     19  15  82 W10       29.99S WCI   8
BISMARCK       FAIR      25  21  85 SW3       30.05F
DICKINSON      FAIR      20  16  84 W7        30.00F WCI  11
GARRISON         N/A     24  18  77 W10       30.01S WCI  14
HETTINGER ARPT CLOUDY    19  17  92 W3        30.04F
JAMESTOWN      FAIR      26  24  92 W6        30.03S WCI  19
CARRINGTON     FAIR      25  21  86 W9        30.03S WCI  15
LINTON           N/A     27  23  86 CALM      30.07S
OAKES          FOG       27  27 100 W3        30.05S VSB 1/4
TIOGA          FAIR      18  18 100 W7        30.00F WCI   8
$$

CITY           SKY/WX    TMP DP  RH WIND       PRES   REMARKS
GRAND FORKS    CLOUDY    17  15  92 S7        30.03S WCI   8
GRAND FORKS AF CLOUDY    19  16  90 SW6       30.02S WCI  11
DEVILS LAKE    CLOUDY    19  16  88 SW7       30.01S WCI  10
FARGO          CLOUDY    24  23  96 S6        30.07S WCI  17
CANDO          FAIR      12  12 100 SW6       30.01S WCI   3
CAVALIER       FAIR       9   7  92 CALM      29.98S
GWINNER          N/A     30  30 100 CALM      30.05F
ROLLA          FAIR      10  10 100 S5        29.96S WCI   2
WALHALLA       FAIR      23  19  86 W6        29.98R WCI  16
$$

CITY           SKY/WX    TMP DP  RH WIND       PRES   REMARKS
ABERDEEN       CLOUDY    25  25 100 CALM      30.06S
MOBRIDGE       CLOUDY    23  20  88 CALM      30.03S
BUFFALO          N/A     24  21  88 SW5       29.96F WCI  18
RAPID CITY     CLOUDY    29  26  89 NW6       30.04S
GLASGOW        CLEAR     16  13  88 SE10      29.98F WCI   4
SIDNEY         CLEAR     19  15  84 SW5       30.04S WCI  12
WOLF POINT     CLEAR     11   6  81 CALM      30.02F
MILES CITY     CLEAR     20  19  96 S8        30.01F WCI  10
BAKER          CLEAR     21  19  92 CALM      30.03S
$$

CITY           SKY/WX    TMP DP  RH WIND       PRES   REMARKS
BILLINGS       FOG       24  24 100 SW12      29.99F VSB 1/2 WCI  13
GREAT FALLS    CLEAR     24  12  60 SW21      29.89F WCI   9
REGINA         CLEAR     16  12  86 SW8       29.90F WCI   5
ESTEVAN        PTCLDY    19  14  79 SW9       29.96F WCI   9
$$




USA.gov is the U.S. government's official web portal to all federal, state and local government web resources and services.